Hourly Data Report for June 08, 2021

WESTERN HEAD
NOVA SCOTIA
Current Station Operator: ECCC - MSC

43°59'24.070" N
64°39'51.008" W
10.10 m
8206240
71411
WWE

Download Data

Hourly Data (June 2021)
Hourly Data Report for June 8, 2021
TIME
LST
Temp Definition
°C
Dew Point Definition
°C
Rel Hum Definition
%
Precip. Amount Definition
mm

Wind Dir Definition
10's deg

Wind Spd Definition
km/h
Visibility Definition
km
Stn Press Definition
kPa
Hmdx Definition


Wind Chill Definition


Weather Definition


00:00 18.4 14.1 76 0.0 24 20   101.26     LegendNANA
01:00 14.1 12.8 92 0.0 23 15   101.26     LegendNANA
02:00 12.8 12.8 100 0.0 23 9   101.24     LegendNANA
03:00 11.0 11.0 100 0.0 23 7   101.23     LegendNANA
04:00 12.6 LegendMM LegendMM 0.0 23 13   101.21     LegendNANA
05:00 12.2 LegendMM LegendMM 0.0 23 18   101.21     LegendNANA
06:00 12.6 LegendMM LegendMM 0.0 22 16   101.23     LegendNANA
07:00 13.8 LegendMM LegendMM 0.0 22 10   101.23     LegendNANA
08:00 16.1 16.1 100 0.0 22 9   101.24     LegendNANA
09:00 13.2 11.6 90 0.0 24 10   101.20     LegendNANA
10:00 14.0 11.1 83 0.0 26 10   101.16     LegendNANA
11:00 12.9 10.9 87 0.0 24 14   101.15     LegendNANA
12:00 14.2 10.8 80 0.0 25 15   101.14     LegendNANA
13:00 14.8 10.9 78 0.0 25 13   101.07     LegendNANA
14:00 14.1 10.8 81 0.0 23 20   101.04     LegendNANA
15:00 14.0 10.3 78 0.0 26 14   101.01     LegendNANA
16:00 11.9 9.9 88 0.0 23 11   101.00     LegendNANA
17:00 11.8 9.8 87 0.0 20 21   100.99     LegendNANA
18:00 11.1 11.1 100 0.0 23 13   101.00     LegendNANA
19:00 11.6 11.6 100 0.0 23 13   101.00     LegendNANA
20:00 11.2 11.2 100 0.0 23 11   101.03     LegendNANA
21:00 14.1 14.1 100 0.0 23 13   101.05     LegendNANA
22:00 12.7 12.7 100 0.0 24 13   101.04     LegendNANA
23:00 11.0 LegendMM LegendMM 0.0 22 13   101.04     LegendNANA

Notes on Data Quality.

Legend

  • E = Estimated
  • M = Missing
  • NA = Not Available*
  • [empty] = Indicates an unobserved value
Date modified: